GEFSSE_500_meanwind_204.txt.gz
Wind_Speed
10 10 9 9 9 8 8 7 7 7 6 6 7 7 7 8 9 9 9 9 9 9 10 11 11 12 12 12 11 11 11 11 11 10 10 9 8 8 8 8 8 7 7
10 10 9 9 9 8 7 7 7 7 7 8 8 8 8 8 8 9 9 10 10 11 11 11 11 12 11 11 11 11 11 11 11 10 9 9 9 9 8 8 8 8 7
10 10 9 9 8 7 7 7 7 8 8 8 8 8 8 8 8 9 9 10 10 11 11 11 11 11 11 11 10 10 10 10 10 10 9 9 9 8 8 8 8 8 8
10 10 9 9 8 8 8 8 8 8 7 7 7 7 7 7 8 8 9 9 10 10 10 11 10 10 10 10 10 10 10 10 10 9 9 9 8 8 9 9 9 9 9
10 9 9 8 8 9 8 8 8 8 7 7 7 7 7 7 7 8 8 9 9 10 10 10 9 10 10 10 10 10 10 9 9 9 8 8 8 8 9 9 9 9 9
9 9 8 8 9 9 8 8 8 8 7 7 7 7 7 7 7 7 7 8 8 9 10 10 9 10 9 10 10 10 9 9 9 9 8 7 8 8 9 9 9 8 8
10 10 9 9 9 8 8 8 7 7 7 7 7 7 7 7 7 7 7 7 8 9 10 10 10 10 10 10 10 9 9 9 8 8 8 8 8 9 9 8 8 8 8
10 10 9 9 9 8 7 7 7 8 8 7 7 7 7 7 7 7 7 7 8 9 9 10 10 10 10 10 9 9 9 9 8 7 7 7 8 8 8 8 7 7 7
10 10 10 9 9 8 7 7 7 7 8 7 7 7 6 6 6 6 7 7 7 8 8 9 10 10 9 9 9 9 8 8 7 7 7 6 6 7 7 7 7 6 6
11 10 10 9 9 8 8 7 7 7 7 7 6 6 6 6 6 6 6 6 7 7 8 8 9 9 8 8 8 7 7 7 6 6 6 6 6 6 6 6 6 5 5
11 10 10 9 9 8 8 7 6 6 6 6 6 6 5 5 5 5 5 6 6 7 7 7 7 7 7 7 7 6 6 6 5 5 5 5 5 5 5 4 4 4 4
11 10 10 9 9 8 7 7 6 5 5 5 5 5 5 4 4 5 5 5 5 6 6 6 6 6 6 6 5 5 5 5 4 4 4 4 4 4 4 3 3 3 3
11 10 9 9 9 8 7 7 7 6 5 5 4 4 4 4 4 4 4 4 5 5 5 5 4 5 5 5 4 4 4 4 3 3 3 3 3 2 2 2 1 1 1
12 10 9 9 8 8 7 7 7 6 5 5 5 4 3 3 3 3 3 3 4 4 4 4 4 4 4 3 3 3 3 2 2 2 1 1 1 1 1 1 1 1 1
13 11 10 9 9 8 7 6 6 6 5 4 4 3 2 2 2 3 3 4 3 3 2 2 3 3 3 3 3 2 2 1 1 1 1 1 1 1 1 2 2 3 3
13 12 11 10 9 9 8 6 6 5 5 4 4 3 3 2 2 3 3 4 3 2 2 1 1 2 2 2 2 2 1 1 1 2 2 2 2 2 3 3 4 4 4
14 12 11 10 9 8 8 7 6 6 5 5 4 3 3 3 2 2 3 3 3 2 2 1 1 1 1 1 1 1 1 1 2 3 3 3 3 4 4 5 5 5 5
14 13 11 10 9 8 8 8 7 6 5 5 4 3 3 3 3 3 4 3 3 3 2 1 1 1 0 1 1 1 2 3 3 4 4 5 5 5 6 7 7 6 6
15 14 11 10 9 8 7 7 7 6 6 5 4 3 3 3 3 3 3 2 3 3 3 2 2 2 2 3 3 4 4 5 5 6 6 6 7 8 8 8 8 8 8
15 14 12 11 10 8 7 7 7 6 6 5 3 2 2 2 2 2 2 1 2 2 2 3 3 3 4 4 5 5 6 6 6 7 7 8 8 8 9 9 9 9 9
14 13 12 11 10 10 8 7 7 6 6 5 4 3 2 2 1 1 0 1 2 2 2 3 4 5 5 6 6 7 7 7 7 7 7 8 9 9 9 10 10 11 11
14 14 13 12 11 10 9 7 6 6 5 5 4 3 2 1 0 1 1 2 2 3 3 4 5 6 7 7 7 8 8 8 8 8 8 9 9 9 10 11 12 12 12
14 13 12 12 11 11 10 8 7 6 5 4 4 3 2 1 1 1 2 2 3 4 4 5 5 6 7 7 8 8 9 9 9 9 10 10 10 10 11 11 11 12 13
13 13 12 12 12 11 10 9 8 6 5 5 4 3 2 2 2 2 3 3 4 4 5 6 6 7 7 8 8 9 9 10 10 11 11 11 11 11 12 12 13 14 14
12 12 12 12 12 11 10 10 9 7 6 5 5 4 3 3 3 4 4 4 5 6 6 7 7 8 8 9 9 10 10 10 11 12 12 12 11 12 12 13 14 14 14
12 12 12 12 12 11 10 9 10 8 6 5 4 4 4 4 4 5 5 5 6 7 7 8 8 9 9 10 10 11 11 11 11 11 12 12 12 13 12 13 14 15 15

GEFSSE_500_meanwind_210.txt.gz
Wind_Speed
8 8 8 9 10 10 10 10 11 10 11 10 11 11 11 11 10 9 9 9 10 10 10 11 12 12 11 11 11 11 11 11 10 10 9 9 8 8 8 8 8 7 7
7 8 9 9 10 11 11 11 10 10 11 10 10 11 11 11 11 11 11 11 11 10 10 11 11 11 12 12 12 11 11 10 10 9 9 9 9 9 8 8 8 8 7
7 8 9 10 11 11 11 12 11 11 12 11 11 11 11 11 11 11 11 11 11 11 11 11 11 11 12 12 12 11 11 10 9 9 9 9 9 9 8 8 8 7 7
7 8 10 10 11 11 11 12 12 11 12 12 11 11 11 11 12 12 11 11 11 11 11 11 11 11 11 11 11 10 10 10 9 9 9 9 8 8 8 8 8 8 7
8 9 10 10 10 11 11 12 12 12 11 12 12 11 11 12 12 12 12 11 11 11 11 11 11 11 11 11 10 10 9 9 9 9 9 8 8 8 8 8 8 8 8
8 9 10 10 11 11 11 12 12 12 12 11 11 12 11 12 12 12 12 11 11 11 11 11 11 11 11 11 10 10 9 9 9 8 8 8 8 7 8 8 7 7 7
9 10 10 10 11 11 11 11 11 12 12 12 11 11 11 11 11 11 11 11 11 11 11 11 11 11 11 10 9 9 9 9 9 9 8 7 7 7 7 7 7 7 6
10 10 10 10 10 11 11 11 11 11 11 11 11 11 10 11 10 10 11 11 11 11 11 10 10 10 9 9 9 9 9 9 8 8 8 7 7 7 6 6 6 6 6
10 10 9 9 10 10 10 10 10 10 10 10 10 11 10 10 10 10 10 10 11 10 10 10 10 9 9 9 9 8 8 8 8 7 7 7 7 6 6 6 5 5 5
10 10 10 9 9 9 9 9 9 9 9 9 9 9 10 9 9 9 9 9 10 9 9 9 9 9 9 8 8 7 7 7 7 7 7 6 6 5 5 5 4 4 4
11 10 10 9 9 9 8 8 8 8 8 8 8 8 8 8 8 8 8 8 8 8 8 8 8 8 7 7 6 6 6 6 6 6 5 5 4 4 3 3 3 3 3
11 11 10 9 8 8 8 8 7 7 6 6 6 7 7 7 7 8 8 8 7 7 7 7 7 6 6 6 5 5 5 5 5 5 4 4 3 2 2 2 1 1 1
12 11 10 9 9 8 7 7 7 6 6 5 5 5 5 6 6 6 7 6 6 6 6 6 5 5 4 4 4 4 4 3 3 3 2 2 2 1 1 1 1 1 1
13 11 10 10 9 8 8 7 6 6 5 5 4 4 4 4 4 5 5 5 5 5 4 4 3 3 3 3 3 2 2 2 2 1 1 1 1 1 1 1 2 2 3
12 11 11 9 8 8 7 6 5 5 5 4 4 3 3 3 3 3 4 4 3 3 3 2 2 2 2 2 2 1 1 1 1 1 1 2 2 2 2 3 3 3 3
13 11 10 9 8 7 6 6 5 5 5 4 4 3 3 2 2 2 3 3 3 2 2 2 1 1 1 1 1 2 2 2 2 2 2 3 4 4 4 4 4 4 4
13 12 11 10 9 8 7 6 6 5 5 4 4 3 3 2 1 2 2 3 3 2 2 1 0 0 1 1 2 2 2 2 2 3 4 4 5 5 5 5 5 6 6
13 12 11 10 9 8 7 6 6 5 5 4 4 4 3 2 1 1 2 2 3 3 2 2 1 1 2 2 3 3 2 3 4 4 5 4 5 6 6 6 7 7 8
13 12 11 10 9 8 8 6 5 5 4 4 4 3 3 2 1 1 2 2 3 3 3 3 3 3 3 4 4 4 4 5 5 6 7 7 7 7 7 8 8 9 9
12 11 11 10 9 8 7 7 5 5 4 3 3 3 3 2 1 0 1 1 2 3 3 4 4 5 5 5 6 6 6 6 7 7 8 8 8 8 9 9 10 10 10
12 11 11 10 10 9 8 7 6 5 4 3 3 2 2 1 1 1 1 2 3 4 4 5 5 6 6 6 7 8 8 8 9 9 9 10 10 10 11 11 12 11 11
13 12 11 11 11 10 8 7 6 5 4 4 3 3 2 2 2 2 3 3 4 4 5 5 6 6 7 8 9 9 9 9 10 11 11 11 12 12 13 13 13 13 13
13 13 12 12 12 11 10 8 7 6 5 4 4 3 3 3 3 3 4 4 5 5 6 6 7 8 8 8 9 10 10 11 11 11 12 13 13 13 13 14 15 14 14
13 13 13 12 12 11 11 9 8 7 5 5 5 4 4 4 4 4 5 5 6 6 7 7 8 9 9 10 11 11 12 12 12 13 13 13 14 15 15 15 15 15 15
12 12 13 12 12 12 11 10 10 9 7 6 6 5 5 5 5 6 6 6 6 7 7 8 8 9 10 11 12 12 13 14 14 14 14 14 15 15 15 14 14 15 15
11 12 12 13 12 12 11 11 11 10 9 8 7 7 6 6 7 7 6 7 7 8 9 9 9 9 10 11 12 13 14 14 15 16 15 15 16 15 15 15 15 16 16

GEFSSE_500_meanwind_216.txt.gz
Wind_Speed
8 8 8 8 8 9 9 10 10 11 11 13 13 12 11 12 12 13 13 13 14 14 14 13 13 12 12 12 12 12 12 12 10 10 9 9 9 7 7 7 6 7 7
8 8 9 9 9 9 9 10 11 11 11 12 14 13 13 13 13 13 12 13 14 13 13 13 13 13 13 13 12 12 12 11 10 9 9 9 8 7 7 7 7 7 7
8 8 8 9 9 10 11 11 11 11 12 12 14 14 14 14 14 13 13 13 13 13 13 13 13 13 13 13 12 12 11 11 10 10 9 8 8 8 7 7 7 6 6
9 8 9 9 9 10 12 12 11 12 12 12 13 14 14 14 13 13 13 14 13 13 13 14 14 13 13 12 12 12 11 11 11 10 9 8 8 8 7 7 6 6 5
8 8 9 9 9 10 11 12 12 12 13 13 13 14 13 14 13 13 13 13 13 13 13 14 14 14 13 12 12 12 11 11 10 9 9 8 8 7 6 6 6 6 5
8 8 9 9 9 10 11 13 13 13 13 13 13 14 14 14 14 14 14 13 13 13 13 14 14 14 13 13 12 12 11 10 9 9 8 8 7 6 6 6 6 6 6
9 8 9 9 9 10 11 12 13 13 13 13 13 13 13 14 15 14 14 14 13 14 14 14 14 13 13 13 12 11 10 9 9 8 8 7 7 6 6 6 6 6 5
9 9 9 9 9 10 10 11 12 12 13 13 13 12 12 13 14 14 14 13 13 14 13 14 14 13 12 11 11 10 10 9 8 8 7 7 6 6 6 6 6 5 5
9 9 9 9 9 9 10 10 11 11 12 12 12 12 12 12 12 13 13 13 13 12 12 12 12 12 11 10 10 9 8 8 8 7 7 6 6 5 5 5 5 4 4
9 9 9 8 9 9 9 9 10 10 11 11 11 11 11 12 12 12 12 12 11 11 11 11 10 10 10 9 8 8 7 7 7 6 6 5 5 4 4 4 3 3 3
9 9 9 8 8 8 8 9 9 9 10 9 9 10 10 10 10 11 11 11 11 10 10 10 10 9 9 8 7 7 6 6 6 5 5 4 3 3 3 3 2 2 2
10 9 8 8 8 7 8 8 8 7 8 8 8 8 8 9 9 9 10 10 10 9 9 9 8 8 7 7 6 6 5 5 5 4 3 3 2 2 2 2 1 1 1
10 9 8 8 8 8 7 7 7 7 7 6 7 7 8 8 7 8 8 8 8 7 7 7 7 7 6 5 5 5 4 4 3 3 2 2 1 2 2 2 1 1 1
10 9 8 8 8 7 7 6 6 6 5 5 6 6 6 6 6 6 7 6 6 5 5 5 5 5 4 4 3 3 3 2 2 1 1 1 1 2 2 2 2 2 3
10 9 9 8 7 7 6 6 6 5 5 4 4 5 5 5 5 5 5 5 5 4 4 4 3 3 3 2 1 1 1 1 0 0 1 1 2 2 3 3 4 4 4
10 9 9 8 7 7 7 6 6 5 5 4 4 4 4 4 4 4 4 4 3 3 3 3 3 2 1 0 0 0 1 1 1 1 1 2 2 3 4 4 5 5 5
10 9 9 8 8 7 7 6 5 5 5 4 4 3 3 3 4 4 3 3 3 3 3 2 2 1 1 1 1 2 2 2 2 2 3 3 4 4 5 6 6 6 6
10 9 9 8 8 8 7 6 6 5 4 4 3 3 2 2 2 3 3 3 3 3 3 3 2 2 3 2 2 3 3 3 3 4 4 5 5 6 7 7 7 6 7
10 10 9 9 9 8 7 6 6 5 4 4 3 2 2 1 1 2 2 2 3 3 3 4 4 4 4 4 4 4 5 5 5 6 6 6 7 8 8 8 8 8 8
10 10 10 9 9 8 7 6 6 5 4 4 3 2 1 1 0 1 2 2 3 3 4 4 4 4 4 5 5 6 6 6 7 8 8 8 8 9 9 9 9 9 10
10 10 10 10 9 9 7 7 6 5 5 3 3 2 2 1 1 1 2 2 3 4 4 5 5 5 5 6 6 6 7 8 8 9 9 10 10 10 10 11 11 12 12
11 11 10 10 10 9 8 7 6 5 5 4 3 3 2 2 2 2 2 3 4 4 5 6 6 6 7 7 7 8 8 9 10 10 10 11 12 12 12 13 13 13 14
11 11 11 11 10 10 8 7 7 6 5 5 4 3 3 2 3 3 4 4 4 5 6 7 7 7 8 9 9 9 9 10 11 11 12 12 13 14 14 15 15 15 15
11 11 11 11 11 10 9 8 8 8 7 6 5 4 4 4 4 4 4 5 6 6 7 8 8 9 9 10 10 11 11 12 13 13 13 14 15 16 16 16 16 16 16
10 10 11 11 11 11 10 9 8 8 7 7 6 5 4 4 4 4 5 6 6 7 7 8 9 9 9 10 10 11 12 13 14 14 15 15 16 16 17 16 16 16 16
9 9 10 10 10 10 10 9 9 9 8 8 7 6 5 5 5 5 6 6 7 7 7 8 9 9 10 11 11 12 12 13 14 15 16 16 16 16 16 16 16 16 17

GEFSSE_500_meanwind_222.txt.gz
Wind_Speed
6 6 6 6 5 5 5 5 4 5 5 6 7 8 9 10 11 12 12 12 13 12 12 12 13 13 13 12 12 11 11 10 11 10 10 9 9 8 8 8 8 7 7
7 7 8 7 6 6 6 6 5 5 5 7 8 9 10 11 11 12 12 12 12 12 12 12 13 13 12 12 11 11 11 11 11 10 10 9 8 8 8 8 8 8 8
7 8 9 8 7 6 6 6 6 6 6 7 8 10 10 11 11 12 12 12 12 12 12 12 12 12 12 12 12 11 11 11 11 10 10 8 8 8 8 8 8 7 7
8 9 9 8 7 6 6 6 6 6 7 8 9 10 10 11 12 12 11 12 13 13 13 13 12 12 12 12 12 11 10 10 9 9 8 7 8 8 8 7 7 7 7
8 9 9 8 7 6 6 7 7 7 7 8 8 9 11 12 12 12 12 12 12 13 13 13 12 12 11 11 11 10 10 9 8 8 7 7 8 7 7 7 6 7 7
8 9 9 8 8 7 7 7 7 7 7 8 8 10 11 12 12 12 12 12 12 12 12 12 12 11 11 11 10 10 10 9 8 7 7 7 7 7 6 6 6 7 7
9 9 9 9 8 7 7 7 7 7 7 8 9 9 10 11 12 12 12 12 12 12 12 13 12 11 11 10 10 10 9 8 7 6 6 7 7 6 6 6 6 6 6
9 8 9 9 8 8 7 7 7 7 7 8 9 10 10 10 11 12 12 12 12 12 12 12 11 11 10 9 9 9 8 7 7 6 6 6 6 6 6 5 5 5 5
8 8 8 9 8 8 7 7 7 7 7 8 9 9 9 10 11 12 12 12 12 11 11 11 10 10 9 9 9 8 7 6 6 6 5 5 5 5 5 4 4 4 4
8 8 8 8 8 7 7 7 7 7 7 8 8 9 9 9 10 10 11 11 11 11 11 10 10 9 9 8 8 7 6 5 5 5 4 4 4 4 3 3 3 3 3
8 8 8 8 7 7 7 7 6 6 7 7 8 8 8 9 9 9 9 10 10 9 9 9 9 9 8 7 6 6 5 4 3 4 3 3 3 2 2 2 2 2 2
9 8 7 7 7 7 7 7 6 6 6 6 7 7 7 8 8 9 9 9 8 8 8 8 8 8 7 6 5 5 4 3 3 3 2 1 1 1 1 1 2 2 2
9 9 8 8 7 7 6 6 6 6 6 6 6 6 6 7 7 7 7 7 7 7 7 7 6 6 5 5 4 4 3 2 2 2 1 1 1 1 1 2 2 2 3
10 9 8 8 7 7 6 5 5 5 5 5 5 5 5 5 5 5 5 6 5 6 5 5 5 4 4 4 3 3 3 3 2 1 1 1 1 2 2 3 3 3 4
11 10 9 8 7 7 6 5 5 5 5 4 4 4 4 3 4 4 4 4 4 4 4 3 3 3 2 2 2 2 2 2 1 1 2 2 2 3 3 4 4 4 5
12 11 9 8 7 7 7 6 5 4 4 4 3 3 3 2 2 2 3 3 2 2 2 2 2 1 1 1 2 2 2 2 2 2 3 3 3 4 4 5 6 6 6
13 12 10 9 8 7 7 6 5 4 4 3 3 3 2 2 1 1 1 1 1 1 0 0 0 1 2 2 3 3 3 3 3 3 4 4 5 5 6 6 7 8 7
13 13 11 10 8 7 7 6 6 5 4 3 3 2 2 1 1 0 0 1 1 1 1 1 2 2 3 4 4 4 4 4 5 4 5 5 6 7 7 7 7 8 7
14 13 12 10 9 8 7 7 6 6 5 4 3 2 1 1 1 1 1 1 1 2 2 3 3 4 4 5 5 5 5 5 6 6 6 7 7 8 8 8 9 8 9
14 13 12 11 9 8 7 6 6 6 6 5 4 3 2 2 2 2 2 3 3 3 4 4 4 5 6 6 6 7 7 7 7 7 7 8 8 9 9 10 9 9 10
14 14 13 12 11 9 8 7 7 6 6 6 5 4 3 3 3 3 3 4 5 5 5 5 6 7 7 7 7 7 7 7 8 9 9 9 9 10 11 10 10 11 12
14 14 13 13 12 11 9 8 8 7 7 7 6 6 5 4 4 4 4 4 5 6 6 7 7 8 8 8 8 8 9 9 10 11 11 11 12 13 12 12 13 13 13
14 13 13 13 13 12 11 10 9 9 8 7 7 7 6 5 5 5 6 6 6 6 7 7 8 8 9 9 9 10 10 10 11 12 13 13 13 14 14 15 15 15 15
12 13 13 14 14 13 11 10 10 9 9 8 8 8 7 7 6 6 6 6 7 7 7 8 8 9 10 10 10 11 11 12 12 13 13 14 14 15 15 16 16 16 16
11 12 13 13 13 13 12 12 11 10 9 9 9 8 8 8 8 7 7 7 8 8 8 8 9 10 10 11 11 12 12 12 13 13 14 15 16 16 17 17 16 16 16
10 11 12 13 14 13 13 13 12 11 10 9 9 9 8 8 8 8 8 9 9 9 9 10 10 10 11 11 12 13 13 13 14 14 15 16 16 17 16 17 17 16 16

GEFSSE_500_meanwind_228.txt.gz
Wind_Speed
9 8 8 8 8 7 6 6 7 6 6 5 5 7 9 10 11 11 12 12 13 14 14 15 14 14 13 13 13 12 12 12 12 11 11 11 10 10 10 9 9 8 8
10 9 8 8 8 8 7 7 7 6 6 6 6 7 8 9 10 11 12 12 13 14 14 14 14 13 13 13 12 12 12 12 12 11 11 10 9 10 10 9 9 8 8
10 10 10 9 8 8 8 8 8 7 7 7 7 7 8 10 10 11 11 12 13 13 13 14 14 13 13 12 12 12 12 12 11 10 10 9 9 9 9 8 8 8 8
11 11 11 10 10 9 9 9 9 8 8 7 7 7 9 10 10 11 12 12 13 12 12 13 13 13 12 12 11 11 11 11 10 10 9 9 9 9 9 8 8 8 8
11 11 11 10 10 9 9 9 9 9 8 8 8 8 8 9 10 11 11 12 12 12 12 12 12 12 12 11 11 10 10 10 9 9 8 8 8 8 8 8 8 8 8
11 11 10 10 10 9 9 9 8 8 8 8 8 8 9 9 10 10 10 11 11 11 11 12 12 12 11 10 10 10 10 9 8 8 7 7 7 7 7 7 7 7 7
11 10 11 11 10 10 9 9 9 9 9 9 9 9 9 10 10 10 10 10 11 11 11 11 11 10 10 9 9 9 9 8 8 7 7 6 6 6 6 6 6 6 6
11 11 11 11 11 10 10 10 10 10 10 10 10 10 10 10 10 10 10 10 10 10 10 10 10 10 9 9 9 8 8 7 7 7 6 6 6 6 6 5 5 5 5
12 11 11 11 11 11 10 10 10 10 10 10 10 10 9 10 10 10 10 10 10 9 9 10 10 9 9 8 8 7 6 6 6 6 5 5 5 5 5 4 4 4 4
12 12 11 11 11 11 10 10 9 9 10 10 10 10 10 10 10 10 10 10 9 9 9 9 8 8 8 8 7 7 6 5 5 4 4 4 4 4 3 3 3 3 3
12 11 11 10 10 10 10 9 9 9 9 9 9 10 10 9 10 10 9 9 9 9 9 8 8 8 8 7 7 6 4 4 3 3 3 2 2 2 2 2 2 1 1
12 11 10 10 10 10 9 9 8 8 8 8 9 9 8 9 9 9 8 8 8 8 8 7 7 7 7 7 6 5 4 3 2 2 2 1 1 1 1 0 1 1 1
12 11 11 10 10 9 9 8 8 8 8 7 7 8 8 8 8 8 7 6 7 6 6 6 6 5 6 5 4 4 3 2 2 1 1 1 0 1 1 1 1 2 2
13 12 11 10 10 9 9 8 8 8 8 7 7 7 8 8 7 6 6 6 6 5 5 5 4 4 4 4 3 2 1 1 1 0 0 0 1 1 2 2 2 3 3
13 12 11 11 10 9 9 8 8 8 8 7 7 6 6 6 6 5 5 5 5 4 4 3 3 2 2 2 1 1 1 1 1 1 2 1 2 2 3 3 4 4 4
14 13 12 11 10 10 9 9 8 7 7 7 6 6 5 5 4 4 4 4 4 3 3 2 2 1 1 0 0 1 1 2 2 2 2 2 3 3 3 4 5 5 6
15 14 13 12 11 11 10 9 8 8 7 7 6 5 4 3 3 3 2 2 2 2 2 2 2 1 1 1 1 1 2 3 4 4 4 4 4 4 5 5 6 7 7
15 14 13 13 12 11 11 9 8 7 7 6 5 4 3 2 2 2 2 1 1 1 1 2 2 2 2 2 3 3 4 4 4 5 5 5 6 6 6 6 7 8 8
16 15 14 13 12 11 11 10 9 8 7 6 5 3 3 2 1 1 0 0 1 1 2 2 3 3 3 4 5 5 6 5 6 6 7 7 7 7 7 7 7 8 9
16 16 15 14 13 11 11 10 9 8 7 6 5 4 3 3 2 1 1 2 2 2 3 3 4 4 5 5 6 7 7 8 7 8 8 8 8 8 8 8 9 9 9
15 15 15 14 14 12 11 10 9 8 7 7 6 5 4 4 3 3 2 3 3 4 4 4 5 5 6 6 7 7 8 9 9 9 9 9 10 10 10 10 11 11 11
15 14 14 14 14 13 12 11 10 9 8 7 6 6 5 5 4 4 4 4 4 5 5 5 6 6 7 7 8 8 8 9 9 8 9 9 10 12 12 12 12 13 12
14 14 14 14 14 14 13 12 11 9 8 8 7 7 6 5 5 4 4 5 5 6 6 7 7 7 7 8 8 9 9 9 9 10 11 11 12 12 12 12 13 13 14
12 13 13 14 13 13 13 12 11 10 9 8 8 7 7 7 6 6 5 5 6 7 7 8 9 9 9 9 9 9 10 10 11 11 12 12 13 14 14 14 14 14 14
11 12 13 13 14 14 13 12 11 10 10 9 8 8 7 7 7 7 7 6 6 7 8 8 9 9 9 10 10 11 11 11 12 13 13 13 14 14 15 15 15 15 15
10 11 12 12 13 14 13 13 12 11 10 10 9 9 8 8 8 8 8 8 8 8 8 9 9 9 10 10 11 12 12 12 12 13 13 14 14 14 15 15 15 15 15